Wind_Speed
49 49 49 50 48 47 45 44 43 42 42 43 43 42 41 40 40 38 36 35 34 33 33 33 32 31 31 32 32 34 34 35 37 37 37 35 34 34 35 37 38 39 39 40 41 41 41 41 42 43 42 41 42 42 43 44 45 46 47 47 46 46 46
48 48 48 48 47 46 45 45 44 42 40 41 42 42 41 41 41 40 39 37 36 35 34 33 33 33 33 34 34 34 34 34 35 35 35 34 34 35 37 39 40 41 42 42 42 41 40 39 40 41 40 41 42 42 42 43 44 46 48 47 46 46 47
46 45 44 43 42 42 43 42 42 40 39 39 40 41 41 41 42 42 41 40 38 37 36 35 35 36 36 35 35 34 33 32 33 34 34 33 34 35 37 40 41 42 43 43 42 41 39 39 40 40 40 40 41 41 41 42 43 44 45 45 46 46 47
43 42 40 39 39 39 39 39 39 39 39 39 39 41 41 41 41 41 40 39 38 38 37 38 38 38 37 36 34 33 31 31 31 33 34 35 35 36 38 40 42 42 43 42 41 40 40 40 41 40 40 40 40 40 40 41 42 43 44 45 45 45 44
42 40 39 38 37 37 37 37 38 40 41 40 40 40 41 41 41 40 40 39 39 39 39 39 39 39 38 37 35 33 32 31 31 32 34 36 37 38 39 40 42 42 42 41 40 41 41 42 42 42 41 41 41 40 39 40 41 42 43 43 42 41 40
41 40 40 39 38 38 37 36 37 40 43 43 42 42 41 41 41 41 41 41 41 41 41 40 39 39 38 37 35 34 33 33 32 33 34 35 36 37 39 40 41 42 42 41 41 42 42 43 43 43 43 42 42 41 39 39 40 41 41 40 39 38 38
41 41 41 41 40 39 38 37 38 40 43 44 44 43 42 41 41 39 39 40 40 40 40 40 38 37 37 36 36 35 35 35 34 35 36 37 38 39 40 41 42 43 42 43 44 44 43 43 44 45 44 44 43 42 39 38 39 41 41 39 38 38 38
43 43 43 42 41 40 39 38 38 39 42 44 46 46 45 43 42 41 40 39 38 38 38 37 36 36 36 36 37 37 37 37 36 37 38 39 40 41 42 43 44 43 44 46 47 46 44 43 44 45 45 45 45 44 40 38 38 40 41 40 40 39 40
42 43 43 43 42 40 39 38 38 39 41 44 46 47 47 46 45 44 44 42 40 39 38 37 37 37 38 38 39 39 39 39 39 40 40 41 41 42 44 44 45 46 48 49 48 46 43 43 44 46 47 47 46 45 43 40 39 39 40 41 42 42 42
34 36 37 38 38 37 37 37 38 39 41 44 46 48 48 48 47 46 46 45 44 43 42 41 41 41 41 41 41 42 43 43 44 44 44 44 44 44 45 46 47 49 49 48 46 45 44 44 45 47 47 46 46 46 45 43 42 41 41 42 43 43 44
29 31 32 33 34 35 35 35 36 38 39 42 45 47 48 49 49 48 47 46 45 44 44 43 43 43 43 44 44 45 46 47 47 47 47 47 47 47 48 49 49 48 47 45 45 45 45 46 47 47 46 46 46 47 46 46 46 46 45 44 44 44 45
32 33 34 34 34 35 35 35 35 36 37 40 42 45 46 47 47 47 47 46 45 44 44 44 44 44 45 45 47 47 48 49 49 49 49 49 49 49 49 49 48 47 46 46 46 46 47 48 48 48 47 47 48 48 49 49 49 49 48 47 46 45 45
32 33 34 35 35 36 36 36 37 38 39 41 43 45 46 47 47 47 46 46 46 46 46 46 46 46 46 47 48 48 49 50 50 50 50 50 50 50 49 49 48 48 48 48 49 49 50 50 49 49 48 50 51 51 51 51 51 50 49 48 47 46 46
33 33 33 34 35 37 39 40 42 43 46 47 47 46 47 48 48 49 49 49 49 49 49 49 49 48 48 49 49 49 50 50 50 50 50 50 50 50 50 50 50 50 50 51 51 51 51 51 51 51 51 53 54 53 52 53 52 50 49 48 47 46 47
37 38 39 38 38 40 42 45 47 49 51 51 50 49 49 49 49 50 50 51 51 51 51 50 50 50 50 50 50 50 50 50 50 50 50 51 51 51 52 52 52 52 52 52 52 52 52 52 53 53 55 55 54 52 52 52 52 50 49 48 47 47 47
46 47 48 47 46 46 46 48 50 52 53 52 52 51 50 50 50 50 50 50 50 51 51 51 50 50 50 50 50 50 51 51 51 52 52 53 53 54 54 54 54 54 54 54 54 54 54 54 54 55 56 55 54 52 51 50 49 48 48 48 48 48 48
50 49 49 50 51 51 51 52 52 52 52 52 52 51 51 51 51 51 51 50 50 50 51 51 51 51 52 52 52 52 53 53 53 53 54 55 55 56 56 57 57 57 57 57 56 56 55 55 55 54 54 54 53 52 50 48 47 47 48 48 48 49 49
43 43 44 46 48 50 51 51 51 50 50 50 50 51 51 51 51 51 51 51 51 51 52 52 52 52 53 53 53 54 54 54 55 55 56 57 58 59 59 60 60 60 59 58 57 56 56 56 56 54 53 53 54 53 50 47 46 47 49 49 49 49 50
38 41 45 48 49 50 49 49 50 51 51 50 50 50 50 50 51 51 52 52 53 53 54 54 54 54 55 55 55 55 56 56 56 57 58 58 59 60 61 61 61 60 59 58 57 56 57 57 57 56 54 53 53 52 51 50 49 49 50 51 51 50 51
44 47 50 52 51 51 51 50 50 51 52 52 51 51 51 51 52 53 53 53 53 54 54 54 55 55 55 56 56 56 57 57 57 58 58 59 59 60 60 60 60 59 58 57 57 56 56 57 58 58 56 54 53 52 52 52 52 52 52 52 52 52 52
49 47 46 46 46 48 49 51 52 52 52 53 53 53 53 53 54 54 54 54 54 54 54 54 55 55 56 56 57 57 58 58 59 59 59 60 60 60 59 58 58 58 58 57 57 57 56 57 58 58 57 56 55 54 53 53 53 54 54 54 54 54 54
46 40 39 41 44 46 47 49 52 53 53 53 54 54 55 56 56 56 56 56 56 55 55 55 55 56 57 57 58 59 59 60 60 61 61 61 60 59 57 56 56 57 57 57 57 57 57 57 57 58 58 58 58 57 56 55 54 54 55 56 57 57 57
44 40 40 41 42 44 45 47 49 51 52 53 55 56 57 58 58 58 58 57 57 57 58 58 57 56 57 57 59 59 60 60 61 61 61 61 60 59 58 58 57 57 57 57 57 58 58 59 59 59 60 60 60 60 59 58 56 55 55 57 57 58 57
46 44 42 41 43 44 46 49 51 52 53 55 57 59 59 59 59 59 59 60 60 61 62 61 61 60 58 59 60 61 61 61 61 61 61 61 61 60 59 59 58 58 58 59 60 61 62 62 62 62 61 61 60 60 59 59 58 57 56 56 56 57 57
55 51 47 48 53 54 53 55 57 59 60 62 63 63 63 62 61 61 61 62 63 64 65 65 65 64 63 63 64 64 64 64 64 64 64 63 62 61 59 60 60 62 63 64 65 65 64 64 63 62 62 61 61 61 61 60 59 58 57 55 56 57 58
65 61 58 59 64 66 65 65 67 69 71 72 71 70 70 69 68 66 65 65 65 66 67 68 68 68 68 68 68 67 66 67 67 67 66 65 63 62 62 64 65 66 67 67 66 65 65 65 66 66 65 64 63 63 62 60 59 59 58 57 57 57 58
69 68 68 68 71 73 74 75 76 76 76 74 73 72 72 72 71 70 69 69 69 69 70 70 71 71 72 72 71 69 67 66 66 66 65 65 65 65 66 67 67 67 68 67 67 66 67 68 68 68 67 66 64 64 63 62 61 61 62 61 61 60 61
72 72 72 73 74 76 77 78 78 77 75 74 73 72 72 71 71 71 71 71 70 71 71 71 72 72 73 73 72 70 68 67 66 66 66 67 67 68 68 67 67 67 67 67 66 66 65 65 65 66 67 68 68 68 68 68 67 66 66 66 66 66 66
73 72 72 73 74 74 75 76 76 75 74 74 73 72 72 72 72 72 72 71 71 71 71 71 71 72 72 72 71 70 70 69 69 69 69 69 70 70 69 69 68 68 67 67 66 66 65 63 64 67 70 70 70 71 73 73 72 71 70 70 70 70 70
74 73 72 72 72 72 73 74 74 74 74 74 74 73 73 73 73 73 72 72 72 72 72 72 72 72 72 72 72 71 71 70 70 71 72 72 72 72 72 71 68 67 67 68 69 70 69 68 69 71 72 72 73 74 76 77 77 76 76 75 74 73 72
76 75 74 73 73 72 73 73 74 74 75 75 75 75 75 74 74 74 73 73 73 72 73 73 73 73 73 73 73 73 73 72 71 71 73 75 75 75 75 74 72 69 71 73 73 73 74 74 74 75 76 78 80 80 80 81 81 81 80 79 76 74 73
79 77 75 74 74 74 74 74 74 74 75 75 75 76 76 76 75 75 75 75 74 74 74 75 75 76 76 76 76 76 75 75 75 75 76 77 77 77 76 76 76 75 76 78 78 77 77 77 77 78 80 81 83 84 84 84 84 84 82 79 75 72 69
79 78 76 75 75 74 74 75 75 75 75 76 77 77 77 77 77 77 77 77 77 76 76 76 77 77 76 76 75 75 74 74 74 75 76 75 75 75 75 75 75 75 75 76 75 76 76 76 76 77 78 79 81 82 82 82 81 81 79 75 71 67 65
76 76 75 75 75 74 74 74 75 75 76 76 76 76 76 76 76 76 76 76 75 75 75 74 74 74 73 72 72 72 71 71 71 72 72 72 71 72 71 72 72 72 71 71 70 70 71 71 70 70 72 74 75 75 75 76 76 76 75 72 68 66 65
73 73 72 72 72 72 72 72 72 72 73 73 73 73 73 73 73 73 74 74 74 73 73 73 72 72 72 72 71 71 71 71 71 71 70 70 70 70 70 71 70 70 69 69 68 68 68 68 68 67 68 71 72 71 71 72 72 73 73 71 69 67 66
72 71 71 71 71 71 71 71 71 72 72 72 72 72 72 72 71 72 72 73 73 73 73 73 73 73 74 74 74 73 73 73 73 72 71 71 71 71 72 72 72 71 70 70 70 69 68 69 69 69 70 71 70 70 70 72 73 73 73 73 72 71 69
75 74 74 74 74 74 74 74 74 74 74 74 73 73 73 73 73 73 73 73 74 75 75 74 74 75 76 77 77 76 75 75 75 75 74 74 74 75 75 75 75 74 73 72 72 70 70 70 71 72 73 74 73 72 71 72 73 74 74 74 75 74 72
Wind_Direction
268 269 270 271 272 273 273 274 275 277 277 275 274 274 273 270 266 264 268 273 276 277 276 275 275 274 276 280 282 283 282 280 277 271 267 264 261 257 258 259 260 263 270 276 278 279 280 284 287 288 288 289 291 291 291 288 285 282 282 281 283 284 285
269 270 271 271 272 274 274 274 275 277 276 274 273 272 271 268 264 263 267 273 275 274 273 272 273 275 277 279 280 280 279 277 274 268 265 263 261 259 258 258 262 268 273 276 276 277 280 285 288 288 288 292 296 295 293 290 287 283 282 281 281 283 285
269 271 271 272 274 275 276 276 276 276 275 272 270 268 267 266 265 264 268 273 273 272 271 271 274 276 278 278 278 277 276 274 271 266 261 260 259 258 258 260 265 270 273 274 275 277 281 286 288 285 286 294 300 300 296 293 289 285 283 280 280 282 285
269 270 271 274 276 277 277 277 276 275 273 270 268 266 265 266 266 267 269 271 271 270 271 274 277 278 277 277 276 274 272 270 269 266 262 259 258 259 261 264 267 269 271 273 275 278 283 287 286 281 284 293 299 301 299 296 291 287 284 282 282 284 286
268 268 271 275 278 280 280 277 274 272 270 269 267 266 265 266 267 268 269 270 270 269 271 275 277 277 275 274 273 271 270 268 267 266 265 263 263 263 265 266 268 270 272 273 275 279 284 287 283 278 282 290 296 300 301 298 294 288 285 284 283 284 286
267 268 272 276 279 281 282 280 275 270 269 269 268 268 267 267 268 268 268 269 269 269 271 273 274 273 272 272 271 269 268 266 265 265 265 265 265 265 267 268 269 270 271 273 276 281 285 285 280 277 281 289 294 299 301 299 295 290 287 285 284 285 286
267 270 273 276 278 280 281 279 275 271 269 268 269 269 268 269 269 269 269 268 268 269 269 270 269 269 269 270 270 269 268 266 265 265 265 265 265 266 267 267 268 269 270 274 279 282 283 281 278 277 282 288 292 297 299 298 295 291 289 288 286 286 286
268 272 274 276 278 279 278 277 274 271 270 269 268 268 268 268 267 268 269 270 269 269 267 267 267 267 268 268 268 269 268 267 267 266 266 267 267 267 267 267 267 268 271 277 281 282 280 278 277 278 282 286 290 294 297 296 294 291 289 288 287 286 287
272 274 276 277 278 277 276 275 274 272 270 269 268 268 268 268 268 269 270 270 271 270 268 268 268 269 269 269 269 269 269 269 269 268 268 268 268 268 268 267 267 269 273 278 280 280 279 278 278 279 282 285 288 293 295 293 292 291 288 286 286 286 286
277 278 278 278 278 278 276 275 273 271 269 269 268 268 268 269 269 270 271 271 271 270 269 270 270 270 270 270 269 269 270 270 270 270 269 269 268 268 268 268 269 272 275 277 278 279 279 279 279 280 282 285 288 292 293 292 292 292 289 286 285 285 285
280 284 284 283 282 281 280 277 274 272 270 269 269 269 269 270 270 271 271 271 271 271 270 270 271 271 271 271 271 270 270 271 271 271 271 270 270 270 270 270 272 274 275 276 278 279 279 279 280 283 285 287 289 291 291 291 292 292 291 287 285 284 285
282 284 285 284 284 283 281 279 277 276 274 272 271 271 271 271 271 271 270 270 270 270 271 271 272 272 272 273 272 272 272 271 271 271 272 272 272 272 272 272 274 275 275 277 279 280 280 280 282 285 288 290 291 290 290 290 291 291 290 287 284 283 284
284 284 283 282 280 279 279 279 279 278 277 276 275 273 272 271 270 270 269 270 270 270 271 272 272 273 273 273 273 273 273 273 273 272 273 273 273 274 274 275 276 276 277 279 280 281 281 280 281 283 287 290 291 290 290 290 290 290 288 285 283 283 283
280 281 281 278 275 273 274 275 277 278 279 278 276 274 272 271 270 270 270 271 272 272 272 273 273 273 273 273 273 274 274 274 274 274 275 275 276 277 277 277 278 278 279 280 281 281 281 280 280 281 285 288 289 288 288 289 290 288 285 283 282 281 281
273 275 276 275 274 272 272 272 275 278 278 277 274 273 272 271 271 271 271 272 273 273 273 273 273 273 273 273 273 274 274 274 275 276 276 277 278 278 279 279 279 280 281 281 282 282 282 281 281 282 284 286 286 285 286 287 288 286 283 282 281 280 280
273 274 273 273 274 274 274 276 277 278 276 274 273 272 272 272 272 272 272 272 272 273 273 273 273 273 273 273 274 274 275 275 276 276 277 278 279 280 280 281 281 282 282 283 283 283 283 282 282 283 284 284 283 283 284 284 284 283 281 280 280 280 280
276 275 272 272 274 276 278 280 280 278 276 274 273 273 273 273 273 274 274 274 274 274 274 275 275 276 276 277 278 278 278 279 279 279 280 281 281 282 282 283 283 284 284 284 284 284 283 283 283 283 284 284 284 284 283 282 281 280 280 280 280 280 280
277 276 275 276 279 281 281 280 278 276 276 275 274 273 273 273 273 273 273 273 272 273 273 274 275 275 276 277 278 279 279 280 280 281 281 282 282 283 283 284 284 284 285 284 284 284 284 284 285 285 284 285 286 286 285 282 280 280 280 280 280 280 280
278 280 283 285 285 284 282 279 276 273 272 273 273 272 272 272 272 272 272 272 272 272 273 273 274 274 275 276 276 277 277 278 278 279 280 281 282 283 284 284 284 284 284 284 284 284 284 285 286 287 287 286 287 287 286 284 282 280 280 280 280 280 280
277 282 285 286 285 284 282 279 275 271 269 270 270 270 271 271 271 272 272 273 274 274 274 275 275 275 276 277 277 278 278 278 278 279 280 281 283 284 284 284 284 283 283 283 283 283 284 285 286 287 287 286 285 284 284 283 283 282 281 280 280 280 281
275 280 282 281 280 280 278 276 274 271 269 268 268 269 270 270 272 273 274 274 274 275 275 276 277 277 277 277 278 278 279 279 280 281 282 283 285 285 285 284 283 282 281 281 281 281 281 282 284 284 285 285 284 284 283 283 283 283 282 282 282 283 284
273 276 277 274 273 274 273 272 272 270 269 269 269 269 270 271 272 273 274 274 274 274 274 275 276 277 278 279 279 279 280 280 281 282 284 285 285 284 284 283 282 281 280 280 280 281 281 281 282 284 284 284 284 283 283 282 282 282 282 283 284 285 285
267 267 273 274 270 268 268 269 269 268 268 269 270 270 271 272 272 273 274 273 273 273 273 273 275 276 279 280 280 280 281 282 282 283 284 284 284 283 283 282 281 280 280 280 281 282 283 283 283 283 283 283 283 283 282 282 281 281 281 282 284 284 285
268 265 267 270 268 266 266 267 265 264 266 270 272 272 272 272 272 272 272 272 272 272 272 273 274 275 277 279 279 280 280 281 282 282 282 283 283 284 283 282 281 280 280 281 282 284 284 284 283 282 282 281 281 281 281 281 282 282 282 283 284 284 284
272 267 260 259 262 264 267 268 266 264 267 272 274 275 274 273 273 273 272 272 272 272 272 272 273 274 276 278 280 280 280 280 281 281 282 282 283 283 282 282 281 282 283 284 285 286 285 284 283 282 281 281 280 279 279 280 280 281 282 282 283 283 284
269 267 261 257 259 262 264 267 267 268 271 273 275 275 274 274 274 274 272 272 272 272 272 272 273 274 276 278 280 281 281 281 282 282 282 283 282 282 282 282 283 283 285 285 286 285 285 284 283 283 282 280 279 279 279 279 279 280 281 283 283 284 285
266 265 264 262 261 261 262 264 267 270 271 272 273 273 273 273 274 273 273 272 272 272 272 272 273 275 276 277 279 280 280 280 281 282 282 282 282 282 282 283 283 284 284 284 284 284 284 284 285 285 284 283 282 282 282 283 282 283 285 286 287 287 289
265 265 266 266 265 264 264 266 268 270 271 272 272 272 271 272 272 272 273 273 273 273 273 274 274 276 277 278 278 279 279 279 279 279 279 279 279 280 280 281 281 281 281 282 281 281 282 283 284 284 284 285 286 286 286 287 287 287 288 289 290 290 291
267 267 267 267 267 266 267 267 269 270 271 271 272 272 272 271 271 271 272 272 273 273 274 275 275 276 277 278 279 279 279 280 279 279 279 278 278 278 278 279 279 279 278 277 276 276 277 278 279 280 281 283 284 284 285 286 287 288 288 289 289 290 291
267 267 267 267 266 266 266 267 268 268 269 270 271 271 271 271 271 271 272 272 273 273 274 275 276 276 277 277 278 279 279 279 279 279 279 279 278 278 278 278 278 277 276 274 273 272 273 273 273 276 278 279 279 279 281 283 284 285 286 287 288 289 290
266 266 266 266 266 265 266 266 267 268 269 270 271 271 271 272 272 273 273 273 274 274 275 275 276 276 276 277 277 277 277 277 277 277 277 278 278 278 278 278 277 275 274 274 273 273 273 272 272 272 273 275 276 277 278 279 280 281 283 284 286 287 287
265 265 264 264 265 265 266 266 267 268 269 270 271 272 273 274 274 274 275 275 275 275 275 275 276 276 276 276 276 277 277 277 276 276 276 276 277 277 277 276 275 274 272 273 273 273 273 272 272 271 271 273 274 275 276 277 278 279 281 282 284 284 284
264 264 264 264 265 265 266 267 268 269 270 271 272 273 274 275 275 276 276 276 276 276 276 276 276 277 277 277 276 276 275 275 275 275 275 275 275 276 275 275 274 274 273 273 273 272 272 272 272 272 272 272 273 274 275 276 277 279 280 281 282 282 282
264 265 265 266 266 266 267 267 268 268 269 270 271 272 273 273 274 275 275 275 275 276 276 276 276 276 276 276 275 274 274 273 272 272 273 274 274 274 274 274 274 274 274 274 273 272 272 272 272 272 272 273 273 273 274 275 276 277 278 280 281 281 280
265 265 266 267 267 267 267 267 267 268 268 269 269 270 270 271 272 273 274 275 275 275 275 275 275 275 274 274 274 274 274 273 272 272 272 272 272 272 272 273 272 272 273 272 272 272 272 272 272 271 271 272 273 274 274 275 275 276 277 278 278 278 277
269 269 269 269 269 269 269 269 269 269 268 268 269 269 269 270 271 272 274 275 275 276 276 276 277 277 276 276 275 275 275 274 274 273 273 272 272 272 272 271 271 271 271 271 271 271 271 271 271 271 271 271 272 272 273 274 275 276 276 277 277 276 276
272 272 272 272 272 272 271 271 270 270 270 270 270 270 270 270 271 271 272 272 273 273 273 273 273 274 274 275 275 274 274 274 273 273 273 273 273 272 271 271 271 270 270 270 270 270 270 270 271 271 271 271 271 271 271 272 273 274 274 275 275 277 278
Height
10666 10666 10665 10664 10664 10665 10666 10668 10669 10670 10670 10670 10669 10669 10669 10670 10670 10669 10669 10669 10670 10670 10669 10668 10668 10668 10668 10670 10671 10670 10670 10670 10671 10671 10671 10671 10672 10673 10673 10674 10674 10673 10673 10672 10672 10670 10669 10667 10665 10663 10662 10661 10660 10660 10659 10658 10657 10656 10654 10653 10653 10651 10651
10659 10660 10660 10659 10659 10659 10660 10662 10664 10665 10666 10665 10665 10664 10664 10665 10666 10666 10665 10665 10665 10665 10665 10664 10665 10665 10664 10665 10666 10666 10666 10666 10666 10667 10667 10667 10668 10669 10670 10670 10670 10669 10668 10667 10667 10667 10666 10664 10662 10660 10657 10655 10654 10655 10654 10653 10652 10650 10649 10648 10648 10647 10646
10653 10654 10654 10654 10653 10654 10654 10656 10658 10660 10661 10661 10660 10660 10660 10661 10662 10662 10662 10661 10661 10661 10661 10660 10660 10660 10660 10661 10661 10662 10661 10661 10662 10663 10663 10663 10664 10665 10666 10666 10665 10664 10663 10663 10663 10662 10662 10661 10659 10656 10653 10650 10649 10649 10649 10647 10646 10645 10644 10644 10643 10643 10642
10648 10648 10648 10648 10648 10649 10649 10650 10651 10653 10654 10656 10656 10656 10656 10656 10657 10658 10658 10657 10657 10656 10656 10656 10655 10655 10656 10656 10657 10657 10657 10657 10657 10658 10659 10659 10660 10661 10661 10661 10660 10660 10659 10659 10659 10657 10657 10656 10654 10651 10649 10648 10646 10645 10644 10642 10641 10640 10639 10638 10638 10638 10637
10643 10643 10643 10643 10643 10644 10645 10645 10646 10646 10647 10649 10651 10652 10652 10652 10652 10653 10654 10653 10653 10652 10652 10652 10651 10650 10650 10652 10653 10653 10653 10653 10653 10653 10654 10655 10656 10657 10657 10656 10656 10655 10655 10655 10654 10653 10652 10651 10649 10646 10645 10644 10643 10641 10640 10639 10637 10635 10634 10634 10633 10633 10632
10639 10639 10638 10638 10638 10639 10640 10641 10641 10641 10641 10643 10645 10647 10648 10648 10647 10648 10649 10649 10648 10648 10648 10648 10647 10646 10646 10647 10648 10649 10649 10650 10649 10649 10650 10651 10652 10652 10652 10652 10651 10651 10650 10650 10649 10648 10648 10646 10643 10641 10641 10640 10638 10636 10635 10635 10633 10630 10629 10629 10629 10628 10627
10634 10634 10634 10634 10634 10635 10636 10636 10636 10636 10636 10637 10639 10641 10643 10643 10643 10643 10643 10644 10644 10644 10643 10643 10643 10643 10642 10642 10643 10643 10644 10645 10646 10646 10646 10647 10648 10648 10648 10647 10646 10646 10646 10645 10644 10643 10644 10642 10639 10636 10636 10635 10633 10631 10631 10631 10629 10626 10624 10624 10624 10623 10622
10629 10629 10629 10629 10630 10630 10631 10631 10632 10632 10632 10632 10633 10635 10637 10639 10638 10638 10638 10638 10640 10640 10639 10639 10639 10639 10638 10638 10638 10638 10638 10639 10640 10642 10642 10643 10643 10643 10643 10642 10642 10641 10641 10639 10637 10637 10638 10637 10635 10632 10632 10631 10628 10627 10627 10626 10625 10623 10621 10619 10619 10618 10617
10624 10624 10624 10624 10624 10625 10626 10626 10626 10627 10627 10627 10628 10630 10632 10633 10634 10633 10633 10633 10634 10635 10635 10635 10635 10635 10635 10635 10634 10633 10633 10633 10634 10635 10636 10637 10638 10638 10638 10638 10637 10637 10636 10633 10631 10630 10631 10631 10630 10628 10627 10626 10624 10622 10621 10620 10620 10619 10618 10616 10615 10613 10613
10619 10618 10619 10619 10619 10620 10621 10621 10622 10622 10623 10623 10623 10624 10626 10627 10628 10628 10628 10628 10629 10630 10630 10630 10631 10631 10631 10631 10630 10630 10629 10629 10629 10630 10630 10631 10632 10632 10632 10632 10632 10631 10630 10628 10626 10625 10624 10624 10623 10623 10623 10622 10620 10617 10616 10614 10613 10613 10613 10612 10611 10609 10608
10614 10614 10614 10614 10615 10616 10616 10617 10617 10617 10618 10618 10618 10619 10620 10621 10623 10623 10623 10623 10624 10624 10624 10624 10625 10625 10625 10625 10625 10625 10625 10624 10624 10624 10625 10625 10626 10626 10626 10626 10626 10625 10625 10623 10622 10620 10618 10616 10616 10616 10617 10617 10615 10613 10611 10609 10607 10607 10606 10606 10606 10605 10603
10610 10610 10610 10610 10611 10611 10612 10612 10613 10613 10614 10614 10614 10614 10615 10616 10617 10617 10618 10618 10618 10618 10618 10619 10619 10619 10619 10619 10619 10619 10619 10619 10619 10619 10619 10619 10620 10620 10620 10620 10620 10620 10619 10618 10617 10615 10613 10611 10610 10609 10609 10609 10609 10607 10605 10604 10602 10601 10600 10599 10599 10599 10598
10607 10606 10606 10606 10607 10607 10608 10608 10608 10608 10609 10609 10609 10610 10610 10610 10611 10612 10612 10612 10613 10613 10613 10613 10613 10613 10613 10613 10613 10613 10613 10613 10613 10612 10613 10613 10613 10613 10613 10614 10614 10614 10614 10613 10612 10610 10608 10607 10605 10604 10603 10602 10601 10600 10598 10597 10597 10596 10594 10592 10592 10592 10591
10603 10603 10602 10602 10603 10603 10604 10603 10604 10604 10604 10604 10604 10604 10604 10604 10605 10606 10606 10606 10607 10607 10607 10607 10607 10608 10608 10607 10607 10607 10607 10606 10606 10606 10607 10607 10606 10606 10606 10607 10607 10607 10607 10607 10605 10604 10603 10602 10601 10600 10599 10597 10595 10594 10592 10590 10590 10589 10587 10586 10586 10586 10585
10598 10598 10598 10598 10598 10599 10599 10599 10599 10599 10599 10598 10598 10598 10598 10598 10599 10599 10600 10600 10600 10600 10601 10601 10602 10602 10602 10601 10601 10601 10601 10600 10600 10600 10600 10600 10600 10599 10599 10600 10600 10600 10600 10599 10598 10598 10597 10596 10594 10594 10593 10592 10590 10589 10588 10586 10584 10582 10580 10580 10580 10580 10579
10592 10592 10592 10592 10593 10593 10594 10594 10594 10594 10593 10592 10591 10592 10592 10592 10592 10593 10594 10594 10594 10594 10594 10595 10595 10595 10595 10595 10595 10595 10595 10594 10594 10594 10594 10593 10593 10592 10592 10592 10592 10592 10592 10591 10590 10590 10589 10588 10588 10587 10586 10585 10584 10584 10583 10582 10580 10577 10575 10574 10574 10573 10572
10584 10585 10585 10586 10586 10586 10587 10587 10587 10587 10586 10586 10585 10585 10585 10586 10586 10587 10588 10588 10588 10588 10588 10588 10588 10588 10588 10587 10588 10588 10587 10587 10587 10587 10586 10586 10585 10585 10584 10583 10584 10584 10584 10583 10582 10582 10581 10580 10580 10580 10579 10577 10576 10576 10577 10577 10575 10572 10570 10569 10569 10567 10565
10577 10577 10579 10579 10579 10580 10580 10579 10579 10580 10579 10579 10579 10579 10580 10580 10580 10581 10582 10582 10582 10582 10582 10582 10583 10582 10582 10581 10581 10581 10580 10580 10580 10579 10579 10578 10577 10577 10576 10575 10575 10575 10575 10574 10574 10573 10572 10571 10571 10573 10573 10571 10568 10567 10568 10569 10569 10566 10564 10563 10563 10562 10560
10571 10572 10572 10573 10573 10573 10573 10573 10573 10573 10573 10573 10573 10573 10574 10574 10574 10575 10575 10576 10576 10576 10576 10576 10576 10576 10576 10575 10575 10575 10574 10573 10573 10573 10572 10571 10570 10570 10569 10567 10567 10566 10566 10566 10565 10565 10563 10561 10561 10563 10564 10564 10562 10560 10559 10560 10560 10560 10558 10557 10557 10557 10555
10566 10567 10567 10566 10566 10566 10566 10567 10567 10567 10567 10567 10567 10567 10568 10568 10568 10569 10569 10569 10569 10569 10569 10569 10569 10569 10569 10568 10568 10567 10567 10566 10566 10566 10565 10564 10563 10562 10561 10560 10558 10557 10557 10557 10556 10556 10555 10553 10551 10552 10553 10555 10555 10555 10554 10552 10552 10551 10551 10550 10550 10550 10549
10561 10561 10562 10561 10560 10559 10559 10560 10560 10560 10561 10561 10561 10562 10562 10562 10562 10563 10563 10563 10563 10562 10562 10562 10561 10561 10561 10561 10561 10560 10559 10558 10558 10558 10558 10557 10556 10554 10553 10552 10551 10549 10548 10547 10547 10547 10548 10546 10544 10543 10543 10544 10545 10547 10548 10547 10545 10543 10542 10542 10542 10541 10542
10555 10555 10555 10554 10553 10553 10552 10553 10554 10555 10556 10556 10556 10556 10557 10557 10557 10557 10557 10557 10556 10556 10555 10555 10554 10554 10554 10554 10553 10553 10552 10551 10551 10551 10550 10549 10548 10547 10546 10545 10543 10542 10541 10540 10539 10539 10539 10539 10538 10536 10535 10535 10536 10536 10538 10540 10540 10538 10535 10534 10534 10533 10533
10551 10550 10548 10546 10546 10547 10546 10546 10548 10548 10550 10550 10551 10551 10551 10551 10551 10551 10550 10550 10549 10549 10548 10547 10547 10547 10547 10546 10545 10545 10544 10544 10544 10543 10542 10541 10540 10539 10539 10537 10536 10535 10534 10533 10532 10531 10531 10532 10532 10530 10529 10528 10528 10527 10528 10530 10532 10533 10531 10529 10528 10526 10526
10547 10548 10546 10540 10537 10539 10540 10540 10540 10541 10541 10543 10543 10544 10545 10545 10545 10545 10544 10543 10542 10541 10541 10540 10539 10539 10539 10538 10537 10537 10537 10537 10537 10536 10535 10534 10532 10532 10531 10530 10528 10527 10526 10526 10525 10524 10523 10523 10523 10523 10523 10522 10521 10520 10520 10520 10521 10524 10525 10524 10522 10520 10519
10544 10546 10546 10539 10532 10531 10532 10532 10533 10533 10533 10534 10535 10537 10537 10538 10538 10538 10537 10536 10535 10533 10532 10532 10531 10531 10530 10529 10529 10529 10529 10528 10528 10528 10527 10526 10526 10525 10523 10522 10520 10519 10518 10517 10516 10515 10514 10513 10513 10514 10515 10515 10514 10513 10513 10513 10513 10514 10515 10517 10516 10514 10512
10538 10540 10542 10538 10531 10527 10526 10525 10525 10526 10526 10527 10527 10528 10528 10529 10530 10529 10529 10528 10527 10525 10524 10523 10523 10522 10522 10522 10521 10521 10520 10519 10519 10519 10519 10518 10518 10516 10515 10513 10512 10510 10510 10509 10508 10507 10506 10504 10504 10504 10505 10505 10505 10505 10505 10506 10506 10506 10506 10507 10508 10507 10506
10532 10532 10533 10532 10528 10524 10521 10519 10518 10518 10519 10520 10520 10520 10520 10520 10520 10520 10520 10519 10518 10517 10516 10515 10515 10514 10513 10513 10513 10513 10513 10512 10511 10511 10510 10510 10509 10507 10506 10504 10503 10503 10502 10501 10500 10499 10498 10496 10495 10494 10493 10494 10495 10496 10496 10497 10497 10497 10497 10497 10498 10498 10497
10524 10524 10524 10523 10521 10518 10516 10514 10512 10511 10511 10511 10511 10511 10511 10511 10511 10510 10510 10510 10509 10508 10507 10507 10506 10505 10504 10504 10504 10504 10504 10504 10504 10503 10502 10502 10501 10499 10498 10497 10497 10496 10495 10494 10493 10491 10490 10488 10485 10484 10483 10483 10484 10485 10485 10485 10486 10486 10487 10487 10486 10487 10487
10514 10515 10515 10514 10513 10511 10509 10507 10505 10503 10502 10502 10502 10502 10502 10502 10502 10502 10502 10501 10501 10500 10500 10499 10498 10498 10497 10496 10495 10496 10495 10495 10495 10493 10493 10492 10491 10491 10491 10491 10491 10490 10488 10488 10486 10484 10484 10484 10479 10476 10475 10475 10476 10475 10474 10474 10475 10476 10477 10477 10477 10477 10477
10505 10506 10506 10505 10504 10502 10501 10499 10497 10496 10494 10493 10493 10493 10493 10493 10493 10493 10493 10493 10493 10492 10492 10491 10491 10490 10490 10489 10488 10488 10488 10488 10486 10484 10482 10481 10481 10481 10481 10482 10485 10484 10480 10479 10478 10477 10478 10478 10475 10472 10469 10468 10468 10467 10465 10465 10466 10467 10467 10468 10469 10468 10468
10496 10496 10496 10495 10494 10493 10491 10490 10489 10487 10486 10485 10484 10484 10484 10484 10485 10485 10484 10484 10485 10485 10484 10483 10482 10482 10481 10481 10481 10480 10480 10480 10480 10477 10473 10472 10472 10472 10471 10472 10476 10476 10471 10468 10469 10469 10469 10469 10469 10467 10464 10461 10459 10458 10459 10458 10457 10457 10458 10459 10460 10461 10460
10485 10486 10486 10486 10485 10484 10483 10481 10480 10479 10478 10476 10475 10474 10474 10475 10475 10475 10475 10475 10475 10475 10475 10473 10472 10472 10471 10471 10471 10471 10471 10471 10470 10468 10465 10464 10463 10463 10463 10462 10463 10463 10461 10459 10459 10460 10460 10460 10459 10457 10456 10454 10451 10449 10450 10450 10448 10448 10449 10450 10452 10452 10451
10474 10475 10476 10476 10476 10475 10474 10473 10472 10471 10470 10468 10467 10466 10466 10466 10465 10464 10464 10464 10464 10464 10464 10463 10462 10461 10461 10461 10460 10460 10460 10461 10460 10458 10456 10456 10455 10454 10454 10453 10452 10451 10451 10450 10450 10450 10450 10450 10449 10447 10445 10445 10443 10441 10441 10441 10439 10438 10439 10441 10442 10442 10442
10465 10466 10466 10466 10466 10466 10465 10464 10463 10462 10461 10461 10460 10459 10458 10457 10456 10455 10454 10453 10453 10453 10453 10453 10452 10451 10451 10450 10449 10449 10450 10450 10449 10448 10448 10447 10446 10445 10444 10443 10443 10442 10441 10441 10441 10441 10440 10440 10440 10438 10435 10433 10432 10433 10434 10432 10431 10430 10430 10432 10433 10433 10432
10457 10457 10456 10456 10455 10455 10454 10454 10453 10453 10452 10452 10452 10451 10450 10449 10448 10447 10445 10444 10444 10443 10443 10442 10442 10441 10440 10439 10438 10438 10439 10438 10437 10438 10439 10438 10437 10436 10434 10433 10432 10432 10432 10432 10432 10432 10432 10431 10430 10429 10426 10423 10422 10424 10424 10423 10422 10421 10421 10423 10424 10424 10422
10445 10445 10445 10444 10444 10443 10443 10442 10442 10442 10442 10442 10442 10442 10441 10440 10440 10439 10438 10436 10435 10434 10433 10432 10431 10430 10428 10427 10427 10427 10427 10427 10426 10426 10427 10427 10426 10425 10424 10423 10422 10422 10422 10422 10422 10423 10424 10422 10421 10419 10416 10414 10414 10414 10414 10413 10412 10412 10412 10412 10413 10413 10412
10432 10432 10431 10431 10431 10431 10431 10431 10430 10430 10430 10430 10431 10431 10430 10430 10429 10429 10429 10428 10426 10424 10424 10424 10423 10421 10418 10416 10416 10416 10416 10415 10414 10415 10416 10416 10415 10414 10413 10412 10412 10412 10412 10412 10412 10414 10414 10412 10411 10409 10405 10404 10404 10405 10405 10404 10403 10402 10402 10402 10402 10402 10402